Regional Weather Roundup
Issued by NWS

Home | Current Version | Previous Version | Text Only | Print | Product List | Glossary Off
Versions: 1 2 3 4 5 6 7 8 9 10 11 12 13 14 15 16 17 18 19 20 21 22 23 24 25 26 27 28 29 30 31 32 33 34 35 36 37 38 39 40 41 42 43 44 45 46 47 48 49 50

000
ASUS43 KIND 241109
RWRIN

WEATHER ROUNDUP FOR INDIANA
NATIONAL WEATHER SERVICE INDIANAPOLIS IN
700 AM EDT WED MAY 24 2017

NOTE: "FAIR" INDICATES FEW OR NO CLOUDS BELOW 12,000 FEET WITH NO
SIGNIFICANT WEATHER AND/OR OBSTRUCTIONS TO VISIBILITY.

* - STATION DOES NOT REPORT WEATHER SUCH AS PRECIPITATION OR FOG.

+ - STATION NOT QUALITY CONTROLLED BY THE NATIONAL WEATHER SERVICE.
    USE DATA WITH CAUTION...ESPECIALLY DEWPOINT AND RELATIVE
    HUMIDITY OBSERVATIONS.

INZ001>003-010>013-019-020-241200-
NORTHWEST INDIANA

CITY           SKY/WX    TMP DP  RH WIND       PRES   REMARKS
GARY /AIRPORT/ LGT RAIN  54  52  94 N6        29.59F
KNOX *+        CLOUDY    54  54 100 N6        29.55S
LA PORTE +     CLOUDY    55  54  96 NW6       29.57S FOG
MICHIGAN CITY+ CLOUDY    52  52 100 N6        29.58S
MONTICELLO +   CLOUDY    56  55  95 N8        29.53F FOG
RENSSELAER +   CLOUDY    55  54  94 N9        29.55F
VALPARAISO     CLOUDY    55  53  93 N7        29.57S FOG

$$

LMZ046-743>745-241200-
SOUTHERN LAKE MICHIGAN

STATION/POSITION TIME  TEMP    WIND        PRES    WAVE
                       AIR SEA DIR/SP/G            HT
                 (UTC) (F)     (DEG/KT/KT) (MB)    (FT)
BURNS HARBOR     1040   51      20/ 13/ 16 1002.4S
MICHIGAN CITY    1040   51     340/ 18/ 19   N/A
5NW MICH CITY    1100   51 53   10/ 14/ 17   N/A     2

$$

INZ004-005-014>016-021>024-241200-
NORTH CENTRAL INDIANA

CITY           SKY/WX    TMP DP  RH WIND       PRES   REMARKS
ELKHART        CLEAR     57  52  82 E6        29.56
GOSHEN         CLOUDY    57  51  80 NE6       29.56R
LOGANSPORT +   CLOUDY    55  54  94 NW3       29.55S
PERU/GRISSOM   PTCLDY    54  54 100 NE3       29.52F
ROCHESTER +    PTCLDY    57  54  88 CALM      29.54S
SOUTH BEND     MOCLDY    55  53  93 NE5       29.56F
WARSAW +       MOCLDY    55  50  82 E5        29.55S

$$

INZ006>009-017-018-025>027-241200-
NORTHEAST INDIANA

CITY           SKY/WX    TMP DP  RH WIND       PRES   REMARKS
ANGOLA *+      CLOUDY    57  52  82 E7        29.57S
AUBURN +       CLOUDY    55  52  88 E7        29.58S
FORT WAYNE     CLOUDY    58  51  78 E9        29.55F
HUNTINGTON +   CLOUDY    56  52  86 E6        29.55S
KENDALLVILLE + CLOUDY    57  52  84 E6        29.57S

$$

INZ028-029-035-036-043>045-051>053-241200-
WEST CENTRAL INDIANA

CITY           SKY/WX    TMP DP  RH WIND       PRES   REMARKS
CRAWFORDSVL +  CLOUDY    55  55 100 NW6       29.54S FOG
GREENCASTLE +  CLOUDY    55  54  94 CALM      29.55R
LAFAYETTE      CLOUDY    57  55  93 NE3       29.53F FOG
TERRE HAUTE    CLOUDY    58  54  86 N8        29.54F

$$

INZ030>032-037>040-046>048-054>057-064-065-241200-
CENTRAL INDIANA

CITY           SKY/WX    TMP DP  RH WIND       PRES   REMARKS
CP ATTERBURY + CLOUDY    55  54  94 CALM      29.53F
COLUMBUS       MOCLDY    59  55  88 NW5       29.53
FRANKFORT +    CLOUDY    59  57  94 N6        29.55F FOG
GREENWOOD *+   CLOUDY    59  54  83 CALM      29.54F
INDIANAPOLIS   CLOUDY    58  56  93 N5        29.53S FOG
-EAGLE CREEK   CLOUDY    59  55  87 CALM      29.53S FOG
KOKOMO +       CLOUDY    56  53  90 CALM      29.53F
MARION +       CLOUDY    57  54  88 CALM      29.54F
MT COMFORT *+  CLOUDY    57  54  88 CALM      29.53F
SHELBYVILLE    CLOUDY    61  54  77 CALM      29.52F
ZIONSVILLE +   CLOUDY    56  55  96 NW3       29.54F FOG

$$

INZ033-034-041-042-049-050-058-059-241200-
EAST CENTRAL INDIANA

CITY           SKY/WX    TMP DP  RH WIND       PRES   REMARKS
MUNCIE         CLOUDY    61  53  75 NE3       29.53F
RICHMOND +     CLOUDY    57  55  94 SE6       29.55F

$$

INZ060-061-067>069-081>083-085>088-241200-
SOUTHWEST INDIANA

CITY           SKY/WX    TMP DP  RH WIND       PRES   REMARKS
EVANSVILLE     RAIN      60  57  89 NW5       29.55F FOG
HUNTINGBURG *+ LGT RAIN  59  57  93 W5        29.55R
WASHINGTON +   RAIN      59  53  81 NW5       29.54S

$$

INZ062-063-066-070>080-084-089>092-241200-
SOUTH CENTRAL AND SOUTHEAST INDIANA

CITY           SKY/WX    TMP DP  RH WIND       PRES   REMARKS
BLOOMINGTON    LGT RAIN  58  54  86 CALM      29.54R
MADISON *+     CLOUDY    59  57  94 CALM      29.55S
NORTH VERNON + CLOUDY    57  55  94 CALM      29.54S
SEYMOUR +      CLOUDY    59  57  94 CALM      29.53S

$$





USA.gov is the U.S. government's official web portal to all federal, state and local government web resources and services.